Skip Page Navigation
NASA JPL Caltech
NASA Logo - Jet Propulsion Laboratory + View the NASA Portal
+ Center for Near-Earth Object Studies
JPL Home Earth Solar System Stars & Galaxies Technology
JPL Solar System Dynamics
BODIES ORBITS EPHEMERIDES TOOLS PHYSICAL DATA DISCOVERY FAQ SITE MAP
IMPORTANT: The SSD Announcement email list is now available. Major changes are coming in the near future, including possible hostname and/or URL changes. To be notified of such changes, subscribe to this email list.

Please visit this page for more details.


JPL Small-Body Database Browser
Search: [ help ]  
65923 (1998 FW47)
Classification: Main-belt Asteroid          SPK-ID: 2065923
Ephemeris | Orbit Diagram | Orbital Elements | Mission Design | Physical Parameters | Discovery Circumstances ]

[ show orbit diagram ]
Orbital Elements at Epoch 2459000.5 (2020-May-31.0) TDB
Reference: JPL 19 (heliocentric ecliptic J2000)
 Element Value Uncertainty (1-sigma)   Units 
e .2043091285298569 3.1222e-08  
a 2.317737563678986 8.6987e-09 au
q 1.844202621882819 7.1112e-08 au
i 3.642421625703406 4.0476e-06 deg
node 224.9410999290468 6.8577e-05 deg
peri 231.009450825578 6.9858e-05 deg
M 168.8772466828676 1.2927e-05 deg
tp 2458395.906526038999
(2018-Oct-04.40652604)
4.4747e-05 TDB
period 1288.827564998673
3.53
7.2557e-06
1.987e-08
d
yr
n .2793236347333793 1.5725e-09 deg/d
Q 2.791272505475153 1.0476e-08 au
  Orbit Determination Parameters
   # obs. used (total)      795  
   data-arc span      7710 days (21.11 yr)  
   first obs. used      1998-03-20  
   last obs. used      2019-04-29  
   planetary ephem.      DE431  
   SB-pert. ephem.      SB431-N16  
   condition code      0  
   norm. resid. RMS      .52825  
   source      ORB  
   producer      Otto Matic  
   solution date      2020-Feb-23 14:48:16  

Additional Information
 Earth MOID = .863519 au 
 Jupiter MOID = 2.39907 au 
 T_jup = 3.549 
[ show covariance matrix ]

Ephemeris | Orbit Diagram | Orbital Elements | Mission Design | Physical Parameters | Discovery Circumstances ]

Physical Parameter Table
Parameter Symbol Value Units Sigma Reference Notes
absolute magnitude H 16.1   n/a MPO468583  

65923 (1998 FW47)          Discovered 1998-Mar-20 by LINEAR at Socorro
Reference: 20030910/Numbers.arcLast Updated: 2004-04-19

Alternate Designations
 1998 FW47 = 2000 VT24 
Ephemeris | Orbit Diagram | Orbital Elements | Mission Design | Physical Parameters | Discovery Circumstances ]
ABOUT SSD CREDITS/AWARDS PRIVACY/COPYRIGHT GLOSSARY LINKS
FirstGov 2020-Apr-02 09:05 UT
(server date/time)  
NASA Home Page
Site Manager:   Ryan S. Park
Webmaster  Alan B. Chamberlin